Location: Hauptwil
(47.4797°N, 9.2522°E)
Time: 20:15:35
(UTC+00:00)

Daily predictions for brighter satellites

Satellite Brightness Start Highest point End
(mag) Time Altitude Azimuth Time Altitude Azimuth Time Altitude Azimuth
MOS 1-B Rocket 4.5 19:04:32 10° NNE 19:12:15 64° E 19:18:44 10° S
Meteor 2-15 Rocket 4.5 19:13:14 10° S 19:19:17 82° E 19:25:25 10° N
SJ-6B 3.1 19:16:04 10° S 19:19:55 71° WSW 19:23:53 10° NNW
SL-08 ROCKET BODY 4.4 19:18:53 10° N 19:24:49 75° E 19:30:40 10° SSE
Cosmos 1408 Rocket 4.5 19:20:33 10° NNW 19:24:49 51° W 19:29:07 10° S
USA 290 3.4 19:24:25 10° N 19:27:18 28° ENE 19:30:10 10° ESE
Terra 4.0 19:25:59 10° ENE 19:27:23 11° NE 19:28:48 10° NE
USA 307 4.5 19:24:49 10° WNW 19:28:44 33° N 19:32:39 10° ENE
Cosmos 1842 Rocket 4.2 19:24:58 10° SSW 19:29:24 64° WNW 19:33:53 10° N
Ariane Rocket 3.0 19:24:34 10° SSE 19:29:38 89° ENE 19:34:44 10° NNW
CREW DRAGON DEMO-1 DEB 4.2 19:27:17 10° WNW 19:29:44 32° N 19:32:10 10° ENE
Cosmos 2263 Rocket 3.9 19:27:24 10° WSW 19:32:35 39° NW 19:37:49 10° NNE
FALCON 9 DEB 3.8 19:30:00 10° WNW 19:32:51 36° SW 19:35:41 10° SSE
Cosmos 1606 2.6 19:31:30 10° S 19:35:15 83° E 19:39:04 10° N
Cosmos 1844 Rocket 2.7 19:31:48 10° S 19:37:16 61° ESE 19:42:47 10° NNE
SPOT 1/Viking Rocket 4.3 19:36:10 10° SE 19:40:58 39° ENE 19:45:47 10° N
SL-4 R/B 2.8 19:37:14 10° WNW 19:41:27 48° SW 19:45:35 12° SE
USA 308 4.4 19:38:22 10° WNW 19:42:18 34° N 19:46:15 10° ENE
Cosmos 1805 Rocket 3.5 19:38:17 10° N 19:42:38 74° E 19:46:59 10° SSE
Cosmos 1386 Rocket 4.4 19:38:21 10° N 19:44:23 71° E 19:50:26 10° SSE
X-37B 0.8 19:42:00 10° W 19:45:09 55° S 19:47:53 13° ESE
ARIANE 5 R/B 3.8 19:43:07 12° ESE 19:46:24 26° ENE 19:50:02 10° N
Cosmos 1633 Rocket 3.8 19:46:59 10° N 19:51:03 35° ENE 19:54:17 15° SE
Cosmos 1745 Rocket 4.0 19:45:22 10° N 19:51:37 82° E 19:57:46 10° S
SPOT 3 Rocket 3.5 19:49:16 10° SSE 19:54:25 79° ENE 19:59:36 10° NNW
Cosmos 1709 Rocket 4.2 19:48:26 10° N 19:54:26 52° ENE 19:59:46 13° SSE
Cosmos 1437 4.5 19:54:17 13° E 19:54:30 13° E 19:56:00 10° ENE
Resurs 1-3 4.3 19:52:23 10° S 19:56:40 54° W 20:01:00 10° NNW
Landsat 7 3.8 19:52:36 11° SSE 19:57:12 72° ENE 20:01:58 10° N
Cosmos 1844 3.7 19:51:46 10° SSW 19:57:28 71° ESE 20:03:08 10° NNE
Cosmos 968 Rocket 3.7 19:53:00 10° SSW 19:58:16 79° WNW 20:03:32 10° NNE
BREEZE-M DEB (TANK) 4.1 19:54:47 10° W 19:59:01 64° SSW 20:06:54 12° ESE
ATLAS 5 CENTAUR R/B 2.4 19:54:53 10° NW 20:00:23 73° NE 20:05:41 16° SE
NOSS 3-3 (A) 4.5 19:57:16 10° S 20:02:20 34° ESE 20:07:59 10° NE
NOSS 3-3 (C) 4.5 19:57:23 10° S 20:02:27 34° ESE 20:08:04 10° NE
Cosmos 1328 Rocket 4.4 19:59:49 15° SSE 20:02:51 32° E 20:06:48 10° NNE
ATLAS 2AS CENTAUR R/B 4.4 19:58:24 10° NW 20:04:50 28° NNE 20:10:54 10° ENE
BREEZE M DEB (TANK) 4.3 20:00:55 10° WSW 20:04:57 85° NNW 20:19:19 10° ENE
Cosmos 1486 Rocket 4.1 20:00:27 10° SSW 20:05:47 84° WNW 20:11:10 10° NNE
IGS 5A 3.5 20:04:31 11° S 20:08:27 79° WSW 20:12:37 10° NNW
Meteor 1-26 Rocket 4.4 20:02:59 10° S 20:08:32 54° E 20:13:56 10° NNE
CARTOSAT-1 4.2 20:07:01 18° SE 20:09:46 39° ENE 20:13:48 10° N
Cosmos 1833 Rocket 3.7 20:04:48 10° NNW 20:09:58 35° NE 20:14:00 15° ESE
Cosmos 2315 Rocket 4.2 20:05:03 10° SSE 20:11:13 55° E 20:17:26 10° NNE
CRYOSAT 2 4.5 20:07:54 15° SSE 20:11:53 59° E 20:16:42 10° N
S3M 4.1 20:05:34 10° S 20:11:57 83° W 20:18:21 10° N
BREEZE-M R/B 1.6 20:10:44 10° WSW 20:13:15 62° SSE 20:15:12 15° ENE
Cosmos 1666 4.3 20:13:18 10° NNE 20:16:04 19° ENE 20:17:21 17° E
Cosmos 1666 Rocket 3.5 20:12:19 10° N 20:16:45 78° E 20:19:58 18° SSE
Meteor 2-17 Rocket 4.4 20:13:35 10° N 20:19:48 84° E 20:25:04 15° S
Cosmos 1933 3.5 20:18:19 10° SSW 20:22:22 72° WNW 20:26:24 10° N
USA 245 1.8 20:23:48 49° SE 20:24:16 71° ENE 20:26:30 10° N
USA 305 4.1 20:20:39 10° WNW 20:24:41 40° NNE 20:28:37 11° E
Cosmos 783 Rocket 4.5 20:20:47 10° NNW 20:26:04 78° ENE 20:29:28 22° SSE
Cosmos 1242 Rocket 2.7 20:24:20 10° SSW 20:27:55 72° WNW 20:31:29 10° N
BREEZE M DEB (TANK) 2.0 20:28:11 10° WNW 20:32:58 67° N 20:34:07 27° E
Cosmos 773 Rocket 4.0 20:28:33 10° NNW 20:33:54 73° ENE 20:37:01 25° SSE
Resurs 01 Rocket 2.8 20:29:57 10° SSW 20:34:06 39° W 20:38:17 10° NNW
Spot 2 Rocket 3.4 20:34:12 22° SSE 20:37:33 87° ENE 20:42:38 10° NNW
SJ 16-02 2.6 20:38:19 23° ESE 20:38:41 23° E 20:42:12 10° NE
OE (NEXTSAT) 4.3 20:35:19 10° W 20:38:46 67° S 20:39:58 37° ESE
Sich 1 4.3 20:34:56 10° NNW 20:38:55 37° W 20:42:55 10° SSW
COSMOS 2406 3.5 20:34:57 10° NNW 20:40:32 56° ENE 20:43:43 25° SE
Cosmos 2082 Rocket 3.3 20:38:07 10° NNW 20:43:12 34° NE 20:46:29 19° ESE
USA 306 3.8 20:39:47 10° WNW 20:43:54 45° NNE 20:47:01 16° E
Meteor 2-6 Rocket 4.5 20:41:14 25° SSE 20:44:00 47° E 20:49:14 10° NNE
Cosmos 1500 3.0 20:41:57 10° N 20:45:45 81° E 20:47:10 36° SSE
CZ-4C R/B 3.0 20:38:41 10° NW 20:45:48 74° NE 20:51:18 23° SE
Cosmos 1782 3.0 20:43:16 16° SSW 20:46:25 71° W 20:50:26 10° N
ERS-1 Rocket 2.9 20:50:52 29° SSE 20:53:29 81° ENE 20:58:33 10° NNW
SPOT 5 3.0 20:52:52 30° SSE 20:55:28 83° ENE 21:00:44 10° NNW
H-2A R/B 3.9 20:52:59 10° NNE 20:57:00 43° E 20:57:49 38° SE
Meteor 1-11 Rocket 4.3 20:54:18 10° N 21:00:05 47° ENE 21:02:44 29° SE
Cosmos 1271 Rocket 3.4 21:00:22 37° ESE 21:00:45 38° E 21:04:30 10° NNE
Cosmos 1151 Rocket 3.8 20:58:03 12° SSW 21:01:56 51° WNW 21:06:13 10° N
Cosmos 1777 Rocket 3.9 20:58:39 21° S 21:02:10 73° ESE 21:07:22 10° NNE
Terra 1.8 21:02:22 36° SSE 21:04:17 72° ENE 21:09:03 10° N
CREW DRAGON DEMO-1 DEB 3.4 21:01:54 10° WNW 21:04:26 42° NNE 21:04:38 41° NNE
Cosmos 2278 Rocket 2.2 21:05:44 27° S 21:08:44 59° ESE 21:14:18 10° NE
USA 307 3.5 21:05:07 10° WNW 21:09:19 54° NNE 21:11:26 27° E
Cosmos 1340 Rocket 4.4 21:10:11 10° NNE 21:13:29 23° ENE 21:14:05 22° E
CZ-4B DEB 4.1 21:16:06 82° S 21:16:13 88° WSW 21:19:27 10° NNW
Cosmos 1515 Rocket 3.7 21:17:35 32° SSW 21:19:36 73° WNW 21:24:01 10° N
Cosmos 1544 4.4 21:17:52 10° NNE 21:20:56 27° ENE 21:20:56 27° ENE
X-37B 2.5 21:18:38 10° W 21:20:09 22° WSW 21:20:09 22° WSW
Cosmos 2084 3.4 21:17:53 12° SW 21:21:42 83° NW 21:25:59 10° NE
ARIANE 5 R/B 3.8 21:20:39 22° SW 21:22:44 35° W 21:26:43 10° NNW
USA 308 3.2 21:18:35 10° WNW 21:22:51 62° NNE 21:24:24 36° E
Cosmos 1869 Rocket 3.8 21:18:56 10° N 21:23:11 52° ENE 21:23:54 46° ESE
Cosmos 1536 3.3 21:19:30 10° N 21:23:25 43° ENE 21:23:48 42° E
Meteor 1-10 Rocket 4.1 21:22:59 34° S 21:25:30 80° E 21:31:10 10° NNE
Cosmos 1437 4.4 21:25:46 21° WSW 21:26:38 25° WNW 21:29:04 10° NNW
Cosmos 1943 Rocket 3.9 21:30:26 17° E 21:30:26 17° E 21:33:25 10° ENE
Cosmos 2154 Rocket 4.0 21:24:11 10° N 21:30:32 72° E 21:33:03 38° SSE
Cosmos 1812 3.6 21:31:31 29° SW 21:33:02 45° WNW 21:36:46 10° N
Cosmos 2184 Rocket 4.1 21:32:18 10° NNW 21:38:32 72° W 21:41:19 34° S
ALOS 2 4.3 21:38:42 20° E 21:39:39 21° ENE 21:42:56 10° NNE
Cosmos 1707 Rocket 4.3 21:42:55 37° E 21:42:55 37° E 21:46:50 10° NNE
NOSS 3-4 (A) 3.8 21:36:32 10° NW 21:43:30 86° NE 21:47:02 36° SE
NOSS 3-4 (C) 3.8 21:36:38 10° NW 21:43:37 85° NE 21:47:09 36° SE
ATLAS 5 CENTAUR R/B 3.8 21:40:03 10° WNW 21:44:50 26° WSW 21:47:13 21° SSW
Cosmos 2074 Rocket 4.3 21:40:15 10° NNW 21:46:28 62° W 21:49:23 32° SSW
Cosmos 1666 3.9 21:48:20 10° NNW 21:51:43 32° W 21:52:11 31° WSW
Cosmos 2112 Rocket 4.4 21:47:09 10° NNW 21:52:26 56° ENE 21:53:50 43° ESE
Cosmos 1833 Rocket 3.4 21:48:41 10° NW 21:54:01 44° WSW 21:55:42 35° SSW
Nadezhda 1 Rocket 4.0 21:51:52 38° S 21:54:32 87° W 22:00:51 10° N
Cosmos 1238 Rocket 4.3 21:50:04 10° N 21:56:15 48° ENE 21:57:51 39° ESE
Cosmos 1743 3.1 21:53:20 10° N 21:56:52 53° ENE 21:56:52 53° ENE
ATLAS 2AS CENTAUR R/B 3.0 21:49:45 10° NW 21:57:12 68° NE 22:00:31 33° ESE
USA 215 3.8 21:55:02 12° E 22:00:53 56° NNE 22:07:15 10° NW
BREEZE-M DEB (TANK) 4.2 21:56:21 10° W 22:02:55 42° NNW 22:04:40 19° NE
Cosmos 2297 4.1 22:03:58 42° ESE 22:04:13 42° ESE 22:09:33 10° NE
USA 305 2.8 22:00:38 10° WNW 22:04:41 73° WSW 22:04:41 73° WSW
Cosmos 2181 Rocket 4.4 22:07:22 41° SE 22:08:39 47° E 22:14:29 10° NNE
Cosmos 158 Rocket 4.3 22:10:12 10° NNW 22:14:52 46° WSW 22:15:28 44° SW
Cosmos 1733 Rocket 3.1 22:11:45 10° N 22:16:02 62° ENE 22:16:02 62° ENE
SJ 16-02 2.5 22:15:14 27° WSW 22:17:02 40° WNW 22:21:14 10° N
Cosmos 2228 Rocket 4.0 22:17:33 35° WSW 22:18:39 42° WNW 22:22:54 10° N
Cosmos 1680 Rocket 3.4 22:15:18 10° NNW 22:20:39 78° WSW 22:21:27 63° S
Meteor 1-27 Rocket 4.1 22:18:37 36° SW 22:20:54 61° WNW 22:26:46 10° N
Cosmos 2341 Rocket 4.0 22:14:54 10° N 22:21:20 88° ENE 22:23:08 51° S
Cosmos 2366 rocket 4.2 22:16:26 10° N 22:22:32 60° ENE 22:24:07 46° SE
USA 306 3.5 22:19:47 10° WNW 22:23:05 46° W 22:23:05 46° W
Cosmos 1937 Rocket 3.6 22:24:06 54° ESE 22:24:08 54° ESE 22:29:11 10° NNE
Cosmos 1818 4.1 22:20:29 10° NNW 22:25:54 54° NE 22:27:40 38° E
Cosmos 2082 Rocket 2.6 22:22:05 10° NW 22:27:27 46° WSW 22:28:19 43° SW
CZ-4C R/B 3.9 22:27:39 10° NW 22:34:12 34° WSW 22:36:28 29° SW
Gbstr 26 Del rocket 4.2 22:28:03 10° WNW 22:35:23 71° NNE 22:40:00 18° E
ERBS 4.2 22:33:56 10° NW 22:36:50 27° NNE 22:37:05 27° NNE
Cosmos 858 Rocket 4.4 22:37:14 66° SE 22:37:28 67° ESE 22:42:40 10° NNE
Cosmos 2218 Rocket 3.9 22:34:16 10° N 22:40:35 82° E 22:42:06 55° SSE
Meteor 1-19 Rocket 4.0 22:40:49 66° SE 22:41:25 73° E 22:46:48 10° NNE
Terra 4.0 22:41:15 14° WSW 22:42:33 15° W 22:45:16 10° NW
Okean 1 3.6 22:46:34 65° NNW 22:46:34 65° NNW 22:50:06 10° N
Cosmos 489 Rocket 4.4 22:41:34 10° NNW 22:47:49 79° ENE 22:49:22 53° SE
USA 307 4.4 22:45:13 10° WNW 22:47:31 27° W 22:47:31 27° W
Cosmos 1340 Rocket 4.1 22:46:19 10° NNW 22:49:40 32° W 22:49:40 32° W
Cosmos 1461 4.3 22:53:28 31° E 22:53:28 31° E 22:56:30 10° NE
Cosmos 2278 Rocket 4.0 22:48:22 10° WSW 22:53:12 28° NW 22:58:05 10° N
Spot 4 4.3 22:53:27 48° WSW 22:53:40 48° W 22:58:24 10° NNW
Cosmos 1862 Rocket 3.6 22:57:00 69° WNW 22:57:00 69° WNW 23:01:08 10° N
Cosmos 1703 Rocket 4.4 22:57:18 40° ENE 22:57:18 40° ENE 23:00:58 10° NNE
Cosmos 1898 Rocket 3.9 22:57:39 47° WSW 22:58:54 60° WNW 23:04:12 10° NNE
Cosmos 2369 Rocket 2.5 23:03:27 49° ESE 23:03:35 49° ESE 23:09:01 10° NE
COBE Rocket 3.8 23:07:04 76° SSW 23:07:23 81° WSW 23:12:33 10° NNW
RESURS DK-1 3.7 23:05:26 10° NNW 23:09:13 32° NE 23:09:53 30° ENE
Meteor 2-9 Rocket 4.4 23:04:02 10° NNW 23:09:46 60° W 23:10:35 55° SW
Gblst 52 Del rocket 4.5 23:03:10 10° WNW 23:10:00 78° NNE 23:14:41 17° ESE
SL-8 Rocket 4.4 23:04:00 10° NNW 23:10:08 53° W 23:11:34 44° SW
Cosmos 1975 3.5 23:09:00 10° NNW 23:12:12 50° NW 23:12:12 50° NW
Cosmos 1943 Rocket 2.1 23:11:55 61° SW 23:12:56 81° WNW 23:18:35 10° NNE
SL-27 R/B 4.5 23:11:01 10° N 23:13:17 22° NE 23:13:17 22° NE
Cosmos 2084 Rocket 3.8 23:09:48 10° NW 23:13:20 59° WNW 23:13:20 59° WNW
ALOS 2 3.2 23:16:05 46° W 23:16:05 46° W 23:19:56 10° NNW
SL-08 R/B 4.4 23:12:04 10° N 23:18:18 89° ESE 23:19:37 59° S
Cosmos 1867 4.4 23:18:57 36° ESE 23:18:57 36° ESE 23:23:29 10° NE
PSLV R/B 4.4 23:14:40 10° NNE 23:18:26 40° E 23:18:26 40° E
Cosmos 1607 4.5 23:19:25 42° SE 23:19:53 43° ESE 23:25:57 10° NE
DNEPR-1 R/B 4.0 23:19:56 60° SW 23:20:59 82° NW 23:25:56 10° NE
Cosmos 44 3.9 23:15:57 10° NW 23:20:48 47° WSW 23:20:48 47° WSW
Meteor 2-4 Rocket 3.6 23:20:31 66° S 23:21:24 90° WSW 23:27:07 10° NNE
Cosmos 2263 4.5 23:22:38 51° SE 23:23:01 52° ESE 23:28:38 10° NE
Okean 3 4.3 23:28:08 43° ENE 23:28:08 43° ENE 23:31:46 10° NNE
EO 1 Del DPAF 4.4 23:25:01 10° NNE 23:27:38 35° ENE 23:27:38 35° ENE
Okean 1-7 3.1 23:30:15 72° NNE 23:30:15 72° NNE 23:34:07 10° N
Cosmos 372 Rocket 3.9 23:30:36 68° WSW 23:31:05 74° WNW 23:36:13 10° NNE
ATLAS CENTAUR R/B 3.5 23:33:01 15° ENE 23:33:01 15° ENE 23:34:00 10° ENE
Helios 1A 4.4 23:31:38 28° E 23:32:17 29° ENE 23:35:55 10° N
Sich 1 Rocket 4.3 23:30:48 10° N 23:35:13 45° ENE 23:35:34 44° E
Cosmos 1125 Rocket 4.0 23:35:51 44° ESE 23:36:00 44° ESE 23:40:58 10° NNE
SeaSat 1 2.3 23:33:04 10° NNE 23:38:02 84° ESE 23:38:19 79° S
Cosmos 494 Rocket 4.2 23:34:05 10° NNW 23:39:16 64° ENE 23:40:14 53° ESE
Cosmos 1656 Rocket 3.7 23:39:04 58° SE 23:39:25 59° ESE 23:44:51 10° NNE
Cosmos 2242 Rocket 3.7 23:40:22 65° WNW 23:40:22 65° WNW 23:44:38 10° N
Cosmos 2239 Rocket 4.4 23:37:01 10° N 23:43:20 87° ENE 23:44:52 55° SSE
USA 215 3.2 23:42:20 51° SSE 23:43:51 64° SW 23:50:22 10° WNW
Cosmos 1833 4.2 23:40:22 10° NNW 23:46:10 80° ENE 23:47:33 54° SE
ATLAS 2AS CENTAUR R/B 3.6 23:41:25 10° NW 23:47:37 32° WSW 23:47:56 31° WSW
CZ-2D R/B 4.0 23:48:26 10° NE 23:52:16 19° E 23:53:55 17° ESE
